This demonstration page uses our WeatherBlox Daily Observations layout. Learn more.

Left ArrowRight Arrow

47.50024, -111.30081

Hourly Observations for May 8, 2015

Temp ( °F °C ) Dew Point ( °F °C ) Humidity (%) Winds ( mph kmh ) Pressure ( in mb ) Visibility ( mi km ) Precip ( " mm )
12:53 am 00:53 Clear 39 3.9 29 -1.7 67 67 ESE 9 15 30.12 1020 10 16 0.00 0.00
1:53 am 01:53 Clear 37 2.8 29 -1.7 73 73 ESE 8 13 30.11 1020 10 16 0.00 0.00
2:53 am 02:53 Clear 33 0.6 28 -2.2 82 82 Calm 30.11 1020 10 16 0.00 0.00
3:53 am 03:53 Clear 34 1.1 28 -2.2 79 79 E 5 7 30.11 1020 10 16 0.00 0.00
4:53 am 04:53 Clear 32 0 28 -2.2 85 85 E 8 13 30.12 1020 10 16 0.00 0.00
5:53 am 05:53 Clear 29 -1.7 27 -2.8 92 92 NE 7 11 30.13 1020 10 16 0.00 0.00
6:53 am 06:53 Sunny 34 1.1 30 -1.1 85 85 E 8 13 30.13 1020 10 16 0.00 0.00
7:53 am 07:53 Cloudy 39 3.9 30 -1.1 70 70 NE 6 9 30.14 1021 10 16 0.00 0.00
8:53 am 08:53 Cloudy 40 4.4 29 -1.7 65 65 NNW 8 13 30.15 1021 10 16 0.00 0.00
9:53 am 09:53 Sunny 43 6.1 30 -1.1 60 60 Calm 30.16 1021 10 16 0.00 0.00
10:53 am 10:53 Mostly Cloudy 48 8.9 31 -0.6 52 52 NE 8 13 30.15 1021 10 16 0.00 0.00
11:53 am 11:53 Cloudy 50 10 32 0 50 50 NE 10 17 30.14 1021 10 16 0.00 0.00
12:53 pm 12:53 Cloudy 50 10 31 -0.6 48 48 NE 7 11 30.14 1021 10 16 0.00 0.00
1:53 pm 13:53 Cloudy with Light Rain 48 8.9 31 -0.6 52 52 NNE 21 33 30.15 1021 10 16 0.00 0.03
2:53 pm 14:53 Mostly Cloudy 54 12.2 30 -1.1 40 40 ENE 10 17 30.14 1021 10 16 0.00 0.03
3:53 pm 15:53 Cloudy 52 11.1 29 -1.7 41 41 ENE 15 24 30.15 1021 10 16 0.00 0.00
4:53 pm 16:53 Mostly Cloudy 51 10.6 29 -1.7 43 43 NE 13 20 30.14 1021 10 16 0.00 0.00
5:53 pm 17:53 Cloudy 50 10 30 -1.1 46 46 E 12 19 30.17 1022 10 16 0.00 0.03
6:53 pm 18:53 Cloudy 49 9.4 32 0 52 52 ESE 8 13 30.17 1022 10 16 0.00 0.00
7:53 pm 19:53 Cloudy with Light Rain 45 7.2 34 1.1 66 66 ENE 14 22 30.19 1023 8 13 0.00 0.03
8:53 pm 20:53 Cloudy 43 6.1 35 1.7 74 74 SE 5 7 30.22 1023 10 16 0.01 0.25
9:53 pm 21:53 Cloudy 41 5 35 1.7 79 79 ESE 5 7 30.23 1024 10 16 0.00 0.00
10:53 pm 22:53 Clear 38 3.3 33 0.6 83 83 SE 6 9 30.24 1024 10 16 0.00 0.00
11:53 pm 23:53 Clear 36 2.2 31 -0.6 82 82 ESE 3 6 30.24 1024 10 16 0.00 0.00

Powered by AerisWeather